contact: severine.martini@mio.osupytheas.fr, dominique.lefevre@mio.osupytheas.fr
Project:EMSO Ligure-ouest http://www.emso-fr.org/EMSO-France
Sensor Optode, line 4330 Serial 272 
DOI : "https://doi.org/10.17882/97948" 
Title:EMSO Ligure Ouest : Data BathyDock capteur Optode - deploiement "2023-04-28"
Datetime,Profondeur,Latitude,Longitude,optode_type,serial,O2_concentration,O2_saturation,Temperature,Calibrated_Phase,Temp_Compensated_Phase,phase_blue_light,phase_red_light,Amplitude_blue_light,Amplitude_red_light,thermistor_bridge
time,m,degree_north,degree_east,1,1,umol.l-1,%,degree_C,degree,degree,degree,degree,mV,mV,mV
2024-01-03T00:00:07,2420,42.8014,5.9826,4330,272,186.528,57.128,13.310,36.035,36.615,41.208,4.592,295.8,545.4,291.2
2024-01-03T00:03:08,2420,42.8014,5.9826,4330,272,186.351,57.073,13.309,36.047,36.627,41.214,4.587,295.8,545.5,291.3
2024-01-03T00:06:07,2420,42.8014,5.9826,4330,272,186.380,57.081,13.308,36.046,36.626,41.208,4.582,295.7,545.5,291.3
2024-01-03T00:09:08,2420,42.8014,5.9826,4330,272,186.627,57.159,13.310,36.029,36.609,41.199,4.589,295.7,545.5,291.2
2024-01-03T00:12:07,2420,42.8014,5.9826,4330,272,186.671,57.171,13.309,36.027,36.607,41.193,4.586,295.8,545.5,291.3
2024-01-03T00:15:08,2420,42.8014,5.9826,4330,272,186.377,57.082,13.310,36.046,36.626,41.216,4.591,295.8,545.5,291.2
2024-01-03T00:18:08,2420,42.8014,5.9826,4330,272,186.362,57.079,13.311,36.045,36.625,41.213,4.588,295.8,545.5,291.2
2024-01-03T00:21:07,2420,42.8014,5.9826,4330,272,186.239,57.037,13.308,36.056,36.635,41.223,4.587,295.8,545.5,291.3
2024-01-03T00:24:07,2420,42.8014,5.9826,4330,272,186.462,57.107,13.309,36.040,36.620,41.205,4.585,295.8,545.5,291.3
2024-01-03T00:27:07,2420,42.8014,5.9826,4330,272,186.480,57.113,13.310,36.039,36.619,41.205,4.587,295.8,545.5,291.2
2024-01-03T00:30:07,2420,42.8014,5.9826,4330,272,186.319,57.062,13.308,36.050,36.630,41.212,4.582,295.8,545.6,291.3
2024-01-03T00:33:07,2420,42.8014,5.9826,4330,272,186.068,56.985,13.308,36.066,36.646,41.230,4.584,295.8,545.5,291.3
2024-01-03T00:36:08,2420,42.8014,5.9826,4330,272,186.373,57.078,13.308,36.047,36.627,41.211,4.585,295.7,545.5,291.3
2024-01-03T00:39:07,2420,42.8014,5.9826,4330,272,186.153,57.011,13.308,36.061,36.641,41.226,4.585,295.8,545.5,291.3
2024-01-03T00:42:08,2420,42.8014,5.9826,4330,272,186.457,57.107,13.311,36.040,36.620,41.208,4.587,295.7,545.5,291.2
2024-01-03T00:45:07,2420,42.8014,5.9826,4330,272,186.384,57.082,13.308,36.046,36.626,41.210,4.584,295.8,545.4,291.3
2024-01-03T00:48:08,2420,42.8014,5.9826,4330,272,186.381,57.079,13.306,36.047,36.627,41.218,4.591,295.8,545.5,291.4
2024-01-03T00:51:07,2420,42.8014,5.9826,4330,272,186.302,57.058,13.309,36.051,36.631,41.213,4.582,295.9,545.4,291.3
2024-01-03T00:54:07,2420,42.8014,5.9826,4330,272,186.647,57.164,13.310,36.028,36.608,41.190,4.582,295.8,545.5,291.2
2024-01-03T00:57:08,2420,42.8014,5.9826,4330,272,186.347,57.070,13.308,36.048,36.628,41.213,4.585,295.8,545.5,291.3
2024-01-03T01:00:07,2420,42.8014,5.9826,4330,272,186.402,57.088,13.309,36.044,36.624,41.208,4.584,295.8,545.5,291.3
2024-01-03T01:03:07,2420,42.8014,5.9826,4330,272,186.564,57.141,13.311,36.032,36.613,41.199,4.586,295.9,545.5,291.2
2024-01-03T01:06:08,2420,42.8014,5.9826,4330,272,186.481,57.111,13.308,36.040,36.620,41.210,4.590,295.8,545.5,291.3
2024-01-03T01:09:07,2420,42.8014,5.9826,4330,272,186.423,57.096,13.310,36.043,36.623,41.209,4.586,295.7,545.4,291.2
2024-01-03T01:12:07,2420,42.8014,5.9826,4330,272,186.311,57.062,13.310,36.050,36.630,41.214,4.584,295.8,545.5,291.2
2024-01-03T01:15:07,2420,42.8014,5.9826,4330,272,186.388,57.093,13.316,36.042,36.622,41.210,4.588,295.7,545.5,291.0
2024-01-03T01:18:08,2420,42.8014,5.9826,4330,272,186.084,56.993,13.311,36.064,36.644,41.231,4.587,295.9,545.5,291.2
2024-01-03T01:21:08,2420,42.8014,5.9826,4330,272,186.393,57.087,13.310,36.044,36.624,41.210,4.585,295.9,545.5,291.2
2024-01-03T01:24:07,2420,42.8014,5.9826,4330,272,186.226,57.039,13.313,36.054,36.634,41.214,4.580,295.8,545.4,291.1
2024-01-03T01:27:08,2420,42.8014,5.9826,4330,272,186.504,57.120,13.309,36.037,36.618,41.201,4.584,295.8,545.5,291.2
2024-01-03T01:30:07,2420,42.8014,5.9826,4330,272,186.425,57.094,13.308,36.043,36.623,41.209,4.586,295.9,545.5,291.3
2024-01-03T01:33:08,2420,42.8014,5.9826,4330,272,186.383,57.083,13.309,36.045,36.625,41.210,4.585,295.8,545.5,291.3
2024-01-03T01:36:07,2420,42.8014,5.9826,4330,272,186.359,57.076,13.309,36.047,36.627,41.217,4.591,295.8,545.5,291.2
2024-01-03T01:39:08,2420,42.8014,5.9826,4330,272,186.390,57.084,13.308,36.045,36.625,41.208,4.583,295.8,545.5,291.3
2024-01-03T01:42:07,2420,42.8014,5.9826,4330,272,186.258,57.045,13.310,36.053,36.633,41.223,4.590,295.9,545.4,291.2
2024-01-03T01:45:07,2420,42.8014,5.9826,4330,272,186.413,57.093,13.310,36.043,36.623,41.208,4.585,295.8,545.5,291.2
2024-01-03T01:48:07,2420,42.8014,5.9826,4330,272,186.498,57.119,13.310,36.038,36.618,41.209,4.591,295.8,545.5,291.2
2024-01-03T01:51:07,2420,42.8014,5.9826,4330,272,186.437,57.098,13.308,36.043,36.623,41.208,4.585,295.8,545.5,291.3
2024-01-03T01:54:08,2420,42.8014,5.9826,4330,272,186.375,57.078,13.307,36.046,36.626,41.217,4.591,295.8,545.5,291.3
2024-01-03T01:57:07,2420,42.8014,5.9826,4330,272,186.359,57.074,13.308,36.047,36.627,41.210,4.583,295.9,545.4,291.3
2024-01-03T02:00:08,2420,42.8014,5.9826,4330,272,186.516,57.126,13.311,36.035,36.615,41.202,4.586,295.8,545.5,291.2
2024-01-03T02:03:08,2420,42.8014,5.9826,4330,272,186.596,57.146,13.308,36.032,36.613,41.198,4.585,295.8,545.4,291.3
2024-01-03T02:06:07,2420,42.8014,5.9826,4330,272,186.324,57.065,13.309,36.049,36.629,41.218,4.590,295.8,545.6,291.2
2024-01-03T02:09:07,2420,42.8014,5.9826,4330,272,186.612,57.153,13.309,36.030,36.610,41.200,4.589,295.8,545.4,291.3
2024-01-03T02:12:08,2420,42.8014,5.9826,4330,272,186.565,57.139,13.309,36.034,36.614,41.205,4.592,295.8,545.4,291.3
2024-01-03T02:15:07,2420,42.8014,5.9826,4330,272,186.055,56.982,13.309,36.066,36.646,41.233,4.587,295.8,545.5,291.3
2024-01-03T02:18:08,2420,42.8014,5.9826,4330,272,186.619,57.151,13.306,36.031,36.611,41.202,4.590,295.9,545.6,291.4
2024-01-03T02:21:07,2420,42.8014,5.9826,4330,272,186.732,57.187,13.307,36.024,36.604,41.192,4.588,295.8,545.4,291.3
2024-01-03T02:24:08,2420,42.8014,5.9826,4330,272,186.547,57.132,13.308,36.035,36.615,41.209,4.594,295.8,545.5,291.3
2024-01-03T02:27:07,2420,42.8014,5.9826,4330,272,186.366,57.075,13.307,36.048,36.628,41.220,4.592,295.8,545.5,291.3
2024-01-03T02:30:08,2420,42.8014,5.9826,4330,272,186.494,57.112,13.306,36.039,36.619,41.208,4.589,295.8,545.5,291.4
2024-01-03T02:33:07,2420,42.8014,5.9826,4330,272,186.495,57.112,13.305,36.040,36.620,41.209,4.589,295.7,545.5,291.4
2024-01-03T02:36:08,2420,42.8014,5.9826,4330,272,186.467,57.108,13.309,36.040,36.620,41.210,4.590,295.7,545.5,291.3
2024-01-03T02:39:07,2420,42.8014,5.9826,4330,272,186.389,57.080,13.305,36.047,36.627,41.214,4.587,295.7,545.5,291.4
2024-01-03T02:42:08,2420,42.8014,5.9826,4330,272,186.646,57.161,13.307,36.029,36.609,41.198,4.590,295.7,545.5,291.3
2024-01-03T02:45:07,2420,42.8014,5.9826,4330,272,186.394,57.087,13.309,36.044,36.624,41.211,4.586,295.7,545.5,291.2
2024-01-03T02:48:08,2420,42.8014,5.9826,4330,272,186.354,57.073,13.308,36.048,36.628,41.216,4.589,295.8,545.5,291.3
2024-01-03T02:51:07,2420,42.8014,5.9826,4330,272,186.507,57.118,13.307,36.038,36.618,41.205,4.586,295.8,545.4,291.3
2024-01-03T02:54:07,2420,42.8014,5.9826,4330,272,186.441,57.099,13.308,36.042,36.622,41.206,4.584,295.8,545.5,291.3
2024-01-03T02:57:08,2420,42.8014,5.9826,4330,272,186.409,57.091,13.309,36.044,36.624,41.212,4.588,295.7,545.5,291.2
2024-01-03T03:00:07,2420,42.8014,5.9826,4330,272,186.530,57.127,13.309,36.036,36.616,41.203,4.587,295.7,545.4,291.3
2024-01-03T03:03:08,2420,42.8014,5.9826,4330,272,186.530,57.132,13.312,36.034,36.615,41.202,4.588,295.7,545.6,291.2
2024-01-03T03:06:07,2420,42.8014,5.9826,4330,272,186.596,57.148,13.309,36.031,36.611,41.203,4.592,295.8,545.4,291.2
2024-01-03T03:09:08,2420,42.8014,5.9826,4330,272,186.432,57.097,13.308,36.042,36.622,41.207,4.585,295.8,545.5,291.3
2024-01-03T03:12:07,2420,42.8014,5.9826,4330,272,186.314,57.063,13.310,36.049,36.629,41.219,4.590,295.7,545.5,291.2
2024-01-03T03:15:08,2420,42.8014,5.9826,4330,272,186.388,57.082,13.307,36.046,36.626,41.216,4.590,295.8,545.5,291.3
2024-01-03T03:18:07,2420,42.8014,5.9826,4330,272,186.493,57.114,13.307,36.040,36.620,41.208,4.588,295.8,545.4,291.3
2024-01-03T03:21:08,2420,42.8014,5.9826,4330,272,186.769,57.198,13.307,36.022,36.602,41.192,4.590,295.8,545.5,291.3
2024-01-03T03:24:07,2420,42.8014,5.9826,4330,272,186.642,57.163,13.310,36.028,36.608,41.192,4.584,295.7,545.4,291.2
2024-01-03T03:27:08,2420,42.8014,5.9826,4330,272,186.263,57.050,13.312,36.052,36.632,41.217,4.586,295.7,545.4,291.1
2024-01-03T03:30:07,2420,42.8014,5.9826,4330,272,186.304,57.061,13.311,36.049,36.629,41.212,4.583,295.8,545.4,291.2
2024-01-03T03:33:08,2420,42.8014,5.9826,4330,272,186.567,57.140,13.309,36.033,36.613,41.202,4.589,295.8,545.4,291.2
2024-01-03T03:36:07,2420,42.8014,5.9826,4330,272,186.300,57.057,13.308,36.051,36.631,41.212,4.581,295.8,545.5,291.3
2024-01-03T03:39:08,2420,42.8014,5.9826,4330,272,186.546,57.133,13.310,36.034,36.614,41.200,4.586,295.8,545.4,291.2
2024-01-03T03:42:07,2420,42.8014,5.9826,4330,272,186.569,57.141,13.310,36.033,36.613,41.200,4.587,295.8,545.5,291.2
2024-01-03T03:45:08,2420,42.8014,5.9826,4330,272,186.494,57.114,13.307,36.039,36.619,41.209,4.590,295.8,545.4,291.3
2024-01-03T03:48:07,2420,42.8014,5.9826,4330,272,186.496,57.118,13.310,36.038,36.618,41.208,4.590,295.8,545.4,291.2
2024-01-03T03:51:08,2420,42.8014,5.9826,4330,272,186.512,57.126,13.312,36.036,36.616,41.201,4.585,295.7,545.4,291.2
2024-01-03T03:54:07,2420,42.8014,5.9826,4330,272,186.369,57.080,13.311,36.045,36.625,41.214,4.589,295.8,545.4,291.2
2024-01-03T03:57:08,2420,42.8014,5.9826,4330,272,186.671,57.172,13.310,36.027,36.607,41.195,4.588,295.8,545.4,291.2
2024-01-03T04:00:07,2420,42.8014,5.9826,4330,272,186.337,57.068,13.309,36.049,36.629,41.216,4.587,295.8,545.5,291.3
2024-01-03T04:03:07,2420,42.8014,5.9826,4330,272,186.537,57.132,13.311,36.034,36.615,41.202,4.588,295.7,545.5,291.2
2024-01-03T04:06:08,2420,42.8014,5.9826,4330,272,186.331,57.070,13.312,36.047,36.627,41.211,4.584,295.7,545.5,291.2
2024-01-03T04:09:07,2420,42.8014,5.9826,4330,272,186.517,57.126,13.311,36.036,36.616,41.201,4.586,295.7,545.5,291.2
2024-01-03T04:12:08,2420,42.8014,5.9826,4330,272,186.478,57.114,13.311,36.038,36.618,41.205,4.587,295.8,545.4,291.2
2024-01-03T04:15:07,2420,42.8014,5.9826,4330,272,186.451,57.104,13.310,36.040,36.620,41.209,4.588,295.8,545.5,291.2
2024-01-03T04:18:08,2420,42.8014,5.9826,4330,272,186.406,57.089,13.308,36.044,36.624,41.212,4.588,295.7,545.5,291.3
2024-01-03T04:21:07,2420,42.8014,5.9826,4330,272,186.459,57.107,13.309,36.040,36.620,41.205,4.585,295.7,545.5,291.2
2024-01-03T04:24:08,2420,42.8014,5.9826,4330,272,186.725,57.189,13.311,36.022,36.602,41.187,4.585,295.8,545.5,291.2
2024-01-03T04:27:07,2420,42.8014,5.9826,4330,272,186.350,57.074,13.310,36.047,36.627,41.213,4.586,295.7,545.4,291.2
2024-01-03T04:30:08,2420,42.8014,5.9826,4330,272,186.394,57.092,13.313,36.042,36.622,41.213,4.590,295.7,545.4,291.1
2024-01-03T04:33:08,2420,42.8014,5.9826,4330,272,186.639,57.166,13.313,36.027,36.607,41.196,4.589,295.7,545.4,291.1
2024-01-03T04:36:08,2420,42.8014,5.9826,4330,272,186.337,57.072,13.312,36.047,36.627,41.213,4.586,295.7,545.4,291.2
2024-01-03T04:39:07,2420,42.8014,5.9826,4330,272,186.562,57.143,13.313,36.031,36.611,41.202,4.591,295.8,545.4,291.1
2024-01-03T04:42:08,2420,42.8014,5.9826,4330,272,186.435,57.101,13.311,36.041,36.621,41.205,4.583,295.8,545.5,291.2
2024-01-03T04:45:07,2420,42.8014,5.9826,4330,272,186.389,57.088,13.312,36.043,36.623,41.210,4.586,295.8,545.4,291.2
2024-01-03T04:48:08,2420,42.8014,5.9826,4330,272,186.440,57.103,13.311,36.041,36.621,41.205,4.584,295.8,545.4,291.2
2024-01-03T04:51:07,2420,42.8014,5.9826,4330,272,186.585,57.145,13.310,36.032,36.612,41.204,4.592,295.8,545.4,291.2
2024-01-03T04:54:08,2420,42.8014,5.9826,4330,272,186.598,57.148,13.308,36.031,36.611,41.201,4.590,295.8,545.4,291.3
2024-01-03T04:57:07,2420,42.8014,5.9826,4330,272,186.536,57.130,13.309,36.035,36.615,41.200,4.585,295.8,545.5,291.3
2024-01-03T05:00:08,2420,42.8014,5.9826,4330,272,186.323,57.067,13.311,36.048,36.628,41.218,4.590,295.8,545.4,291.2
2024-01-03T05:03:08,2420,42.8014,5.9826,4330,272,186.374,57.082,13.311,36.045,36.625,41.212,4.587,295.7,545.5,291.2
2024-01-03T05:06:08,2420,42.8014,5.9826,4330,272,186.303,57.060,13.311,36.050,36.630,41.212,4.582,295.8,545.5,291.2
2024-01-03T05:09:07,2420,42.8014,5.9826,4330,272,186.514,57.122,13.308,36.037,36.617,41.210,4.592,295.8,545.5,291.3
2024-01-03T05:12:07,2420,42.8014,5.9826,4330,272,186.451,57.103,13.309,36.041,36.621,41.207,4.586,295.7,545.4,291.3
2024-01-03T05:15:08,2420,42.8014,5.9826,4330,272,186.564,57.138,13.309,36.034,36.614,41.201,4.587,295.7,545.4,291.3
2024-01-03T05:18:07,2420,42.8014,5.9826,4330,272,186.368,57.077,13.308,36.047,36.627,41.215,4.588,295.7,545.4,291.3
2024-01-03T05:21:08,2420,42.8014,5.9826,4330,272,186.533,57.128,13.308,36.036,36.616,41.199,4.582,295.7,545.4,291.3
2024-01-03T05:24:07,2420,42.8014,5.9826,4330,272,186.771,57.204,13.311,36.019,36.599,41.189,4.590,295.7,545.5,291.2
2024-01-03T05:27:08,2420,42.8014,5.9826,4330,272,186.389,57.087,13.311,36.044,36.624,41.204,4.580,295.7,545.5,291.2
2024-01-03T05:30:07,2420,42.8014,5.9826,4330,272,186.562,57.138,13.309,36.034,36.614,41.202,4.588,295.8,545.4,291.3
2024-01-03T05:33:07,2420,42.8014,5.9826,4330,272,186.677,57.177,13.313,36.025,36.605,41.193,4.588,295.7,545.5,291.1
2024-01-03T05:36:08,2420,42.8014,5.9826,4330,272,186.397,57.090,13.311,36.043,36.623,41.208,4.585,295.8,545.5,291.2
2024-01-03T05:39:07,2420,42.8014,5.9826,4330,272,186.506,57.123,13.311,36.036,36.616,41.203,4.587,295.7,545.4,291.2
2024-01-03T05:42:08,2420,42.8014,5.9826,4330,272,186.456,57.106,13.310,36.040,36.620,41.208,4.587,295.7,545.5,291.2
2024-01-03T05:45:07,2420,42.8014,5.9826,4330,272,186.371,57.083,13.312,36.045,36.625,41.212,4.588,295.7,545.4,291.1
2024-01-03T05:48:08,2420,42.8014,5.9826,4330,272,186.532,57.128,13.308,36.036,36.616,41.207,4.591,295.7,545.5,291.3
2024-01-03T05:51:07,2420,42.8014,5.9826,4330,272,186.330,57.067,13.310,36.049,36.628,41.217,4.588,295.7,545.4,291.2
2024-01-03T05:54:08,2420,42.8014,5.9826,4330,272,186.192,57.029,13.312,36.056,36.636,41.220,4.584,295.7,545.4,291.1
2024-01-03T05:57:07,2420,42.8014,5.9826,4330,272,186.329,57.072,13.313,36.047,36.627,41.210,4.583,295.7,545.4,291.1
2024-01-03T06:00:08,2420,42.8014,5.9826,4330,272,186.486,57.118,13.312,36.037,36.617,41.201,4.584,295.7,545.4,291.2
2024-01-03T06:03:08,2420,42.8014,5.9826,4330,272,186.549,57.134,13.310,36.034,36.614,41.202,4.587,295.7,545.4,291.2
2024-01-03T06:06:08,2420,42.8014,5.9826,4330,272,186.544,57.136,13.312,36.033,36.613,41.203,4.589,295.7,545.5,291.2
2024-01-03T06:09:07,2420,42.8014,5.9826,4330,272,186.590,57.148,13.311,36.031,36.611,41.200,4.589,295.7,545.4,291.2
2024-01-03T06:12:08,2420,42.8014,5.9826,4330,272,186.706,57.187,13.313,36.022,36.602,41.194,4.592,295.8,545.5,291.1
2024-01-03T06:15:07,2420,42.8014,5.9826,4330,272,186.348,57.077,13.313,36.046,36.626,41.213,4.587,295.7,545.4,291.1
2024-01-03T06:18:08,2420,42.8014,5.9826,4330,272,186.557,57.141,13.313,36.032,36.612,41.203,4.591,295.8,545.4,291.1
2024-01-03T06:21:07,2420,42.8014,5.9826,4330,272,186.385,57.092,13.316,36.042,36.622,41.208,4.586,295.8,545.5,291.0
2024-01-03T06:24:08,2420,42.8014,5.9826,4330,272,186.374,57.084,13.312,36.045,36.625,41.213,4.589,295.7,545.4,291.2
2024-01-03T06:27:07,2420,42.8014,5.9826,4330,272,186.625,57.160,13.312,36.028,36.608,41.195,4.587,295.8,545.4,291.2
2024-01-03T06:30:08,2420,42.8014,5.9826,4330,272,186.462,57.113,13.314,36.038,36.618,41.202,4.584,295.8,545.5,291.1
2024-01-03T06:33:08,2420,42.8014,5.9826,4330,272,186.490,57.119,13.312,36.037,36.617,41.202,4.586,295.7,545.5,291.2
2024-01-03T06:36:08,2420,42.8014,5.9826,4330,272,186.477,57.121,13.317,36.035,36.615,41.203,4.587,295.8,545.4,291.0
2024-01-03T06:39:08,2420,42.8014,5.9826,4330,272,186.432,57.105,13.315,36.039,36.619,41.211,4.592,295.8,545.4,291.1
2024-01-03T06:42:07,2420,42.8014,5.9826,4330,272,186.596,57.155,13.314,36.029,36.609,41.195,4.586,295.8,545.4,291.1
2024-01-03T06:45:08,2420,42.8014,5.9826,4330,272,186.468,57.114,13.313,36.038,36.618,41.206,4.588,295.7,545.4,291.1
2024-01-03T06:48:07,2420,42.8014,5.9826,4330,272,186.513,57.130,13.315,36.034,36.614,41.203,4.589,295.8,545.4,291.1
2024-01-03T06:51:08,2420,42.8014,5.9826,4330,272,186.504,57.129,13.316,36.034,36.614,41.203,4.589,295.8,545.4,291.0
2024-01-03T06:54:07,2420,42.8014,5.9826,4330,272,186.240,57.046,13.314,36.052,36.632,41.215,4.583,295.8,545.4,291.1
2024-01-03T06:57:08,2420,42.8014,5.9826,4330,272,186.313,57.067,13.313,36.047,36.627,41.212,4.584,295.8,545.4,291.1
2024-01-03T07:00:07,2420,42.8014,5.9826,4330,272,186.415,57.097,13.312,36.042,36.622,41.206,4.585,295.7,545.5,291.1
2024-01-03T07:03:08,2420,42.8014,5.9826,4330,272,186.517,57.131,13.315,36.034,36.614,41.199,4.585,295.8,545.5,291.1
2024-01-03T07:06:07,2420,42.8014,5.9826,4330,272,186.537,57.135,13.313,36.033,36.613,41.200,4.586,295.7,545.4,291.1
2024-01-03T07:09:08,2420,42.8014,5.9826,4330,272,186.432,57.104,13.314,36.040,36.620,41.206,4.586,295.8,545.5,291.1
2024-01-03T07:12:07,2420,42.8014,5.9826,4330,272,186.391,57.092,13.314,36.043,36.623,41.209,4.586,295.7,545.5,291.1
2024-01-03T07:15:08,2420,42.8014,5.9826,4330,272,186.503,57.125,13.313,36.036,36.616,41.200,4.584,295.8,545.4,291.1
2024-01-03T07:18:07,2420,42.8014,5.9826,4330,272,186.251,57.052,13.317,36.051,36.630,41.213,4.583,295.8,545.5,291.0
2024-01-03T07:21:07,2420,42.8014,5.9826,4330,272,186.360,57.079,13.312,36.046,36.626,41.211,4.585,295.9,545.5,291.2
2024-01-03T07:24:08,2420,42.8014,5.9826,4330,272,186.367,57.080,13.311,36.045,36.625,41.214,4.588,295.8,545.5,291.2
2024-01-03T07:27:08,2420,42.8014,5.9826,4330,272,186.353,57.080,13.314,36.045,36.625,41.214,4.590,295.8,545.5,291.1
2024-01-03T07:30:07,2420,42.8014,5.9826,4330,272,186.153,57.021,13.316,36.056,36.636,41.222,4.586,295.7,545.4,291.0
2024-01-03T07:33:07,2420,42.8014,5.9826,4330,272,186.443,57.109,13.315,36.038,36.618,41.202,4.584,295.8,545.3,291.1
2024-01-03T07:36:08,2420,42.8014,5.9826,4330,272,186.507,57.130,13.316,36.034,36.614,41.200,4.586,295.7,545.4,291.0
2024-01-03T07:39:07,2420,42.8014,5.9826,4330,272,186.424,57.103,13.315,36.040,36.620,41.210,4.590,295.8,545.4,291.1
2024-01-03T07:42:08,2420,42.8014,5.9826,4330,272,186.175,57.041,13.326,36.051,36.631,41.217,4.586,295.7,545.4,290.7
2024-01-03T07:45:07,2420,42.8014,5.9826,4330,272,186.654,57.176,13.317,36.024,36.604,41.192,4.588,295.8,545.3,291.0
2024-01-03T07:48:08,2420,42.8014,5.9826,4330,272,186.308,57.079,13.324,36.043,36.623,41.213,4.590,295.7,545.4,290.8
2024-01-03T07:51:07,2420,42.8014,5.9826,4330,272,186.238,57.061,13.327,36.046,36.626,41.214,4.589,295.7,545.4,290.7
2024-01-03T07:54:08,2420,42.8014,5.9826,4330,272,186.604,57.167,13.322,36.025,36.605,41.188,4.583,295.7,545.3,290.8
2024-01-03T07:57:07,2420,42.8014,5.9826,4330,272,186.201,57.048,13.325,36.050,36.630,41.213,4.583,295.7,545.4,290.7
2024-01-03T08:00:08,2420,42.8014,5.9826,4330,272,186.367,57.093,13.321,36.041,36.621,41.202,4.581,295.8,545.3,290.9
2024-01-03T08:03:08,2420,42.8014,5.9826,4330,272,186.368,57.092,13.320,36.041,36.621,41.212,4.591,295.8,545.4,290.9
2024-01-03T08:06:07,2420,42.8014,5.9826,4330,272,186.307,57.071,13.318,36.046,36.626,41.221,4.595,295.8,545.4,291.0
2024-01-03T08:09:08,2420,42.8014,5.9826,4330,272,186.585,57.158,13.320,36.028,36.608,41.197,4.589,295.8,545.4,290.9
2024-01-03T08:12:07,2420,42.8014,5.9826,4330,272,186.245,57.055,13.321,36.049,36.629,41.217,4.588,295.8,545.4,290.9
2024-01-03T08:15:08,2420,42.8014,5.9826,4330,272,185.903,56.952,13.322,36.071,36.650,41.230,4.580,295.7,545.4,290.8
2024-01-03T08:18:07,2420,42.8014,5.9826,4330,272,186.350,57.092,13.324,36.040,36.620,41.205,4.585,295.8,545.3,290.8
2024-01-03T08:21:08,2420,42.8014,5.9826,4330,272,186.511,57.140,13.323,36.031,36.611,41.199,4.589,295.8,545.3,290.8
2024-01-03T08:24:07,2420,42.8014,5.9826,4330,272,186.182,57.043,13.326,36.050,36.630,41.216,4.585,295.9,545.4,290.7
2024-01-03T08:27:08,2420,42.8014,5.9826,4330,272,186.483,57.133,13.324,36.032,36.612,41.197,4.585,295.9,545.3,290.8
2024-01-03T08:30:07,2420,42.8014,5.9826,4330,272,186.139,57.035,13.330,36.051,36.631,41.214,4.584,295.7,545.4,290.6
2024-01-03T08:33:07,2420,42.8014,5.9826,4330,272,186.213,57.048,13.323,36.049,36.629,41.214,4.584,295.8,545.3,290.8
2024-01-03T08:36:08,2420,42.8014,5.9826,4330,272,186.462,57.127,13.325,36.032,36.612,41.197,4.585,295.8,545.4,290.7
2024-01-03T08:39:07,2420,42.8014,5.9826,4330,272,186.354,57.090,13.322,36.041,36.621,41.214,4.592,295.8,545.3,290.8
2024-01-03T08:42:08,2420,42.8014,5.9826,4330,272,186.325,57.085,13.325,36.041,36.621,41.209,4.588,295.9,545.4,290.7
2024-01-03T08:45:07,2420,42.8014,5.9826,4330,272,186.437,57.123,13.328,36.033,36.613,41.202,4.589,295.8,545.4,290.6
2024-01-03T08:48:08,2420,42.8014,5.9826,4330,272,186.110,57.021,13.326,36.055,36.635,41.220,4.584,295.8,545.4,290.7
2024-01-03T08:51:07,2420,42.8014,5.9826,4330,272,186.263,57.064,13.323,36.046,36.626,41.216,4.590,295.8,545.4,290.8
2024-01-03T08:54:07,2420,42.8014,5.9826,4330,272,186.109,57.021,13.326,36.055,36.635,41.223,4.587,295.8,545.3,290.7
2024-01-03T08:57:08,2420,42.8014,5.9826,4330,272,186.436,57.117,13.323,36.035,36.615,41.207,4.592,295.8,545.3,290.8
2024-01-03T09:00:07,2420,42.8014,5.9826,4330,272,186.266,57.066,13.325,36.046,36.626,41.213,4.587,295.8,545.3,290.8
2024-01-03T09:03:07,2420,42.8014,5.9826,4330,272,186.180,57.043,13.327,36.050,36.630,41.215,4.584,295.8,545.3,290.7
2024-01-03T09:06:08,2420,42.8014,5.9826,4330,272,186.292,57.085,13.332,36.040,36.620,41.207,4.588,295.8,545.3,290.5
2024-01-03T09:09:07,2420,42.8014,5.9826,4330,272,186.356,57.095,13.325,36.039,36.619,41.207,4.588,295.8,545.3,290.7
2024-01-03T09:12:08,2420,42.8014,5.9826,4330,272,186.126,57.021,13.323,36.055,36.635,41.223,4.588,295.8,545.3,290.8
2024-01-03T09:15:07,2420,42.8014,5.9826,4330,272,186.315,57.083,13.325,36.041,36.621,41.212,4.590,295.9,545.4,290.7
2024-01-03T09:18:08,2420,42.8014,5.9826,4330,272,186.132,57.028,13.327,36.053,36.633,41.219,4.586,295.8,545.3,290.7
2024-01-03T09:21:07,2420,42.8014,5.9826,4330,272,186.161,57.037,13.327,36.051,36.631,41.217,4.586,295.9,545.3,290.7
2024-01-03T09:24:08,2420,42.8014,5.9826,4330,272,186.248,57.057,13.321,36.048,36.628,41.220,4.592,295.9,545.4,290.9
2024-01-03T09:27:07,2420,42.8014,5.9826,4330,272,186.374,57.098,13.323,36.039,36.619,41.206,4.587,295.9,545.4,290.8
2024-01-03T09:30:08,2420,42.8014,5.9826,4330,272,186.186,57.042,13.325,36.050,36.630,41.215,4.584,295.9,545.4,290.7
2024-01-03T09:33:08,2420,42.8014,5.9826,4330,272,186.407,57.110,13.325,36.037,36.617,41.208,4.591,295.9,545.4,290.7
2024-01-03T09:36:07,2420,42.8014,5.9826,4330,272,185.966,56.974,13.324,36.065,36.645,41.227,4.583,295.8,545.3,290.8
2024-01-03T09:39:08,2420,42.8014,5.9826,4330,272,186.308,57.080,13.325,36.043,36.623,41.210,4.587,295.9,545.3,290.7
2024-01-03T09:42:07,2420,42.8014,5.9826,4330,272,186.239,57.060,13.326,36.046,36.626,41.217,4.590,295.9,545.4,290.7
2024-01-03T09:45:08,2420,42.8014,5.9826,4330,272,185.904,56.954,13.323,36.070,36.650,41.231,4.581,295.9,545.3,290.8
2024-01-03T09:48:07,2420,42.8014,5.9826,4330,272,186.164,57.034,13.323,36.053,36.633,41.221,4.588,295.8,545.3,290.8
2024-01-03T09:51:08,2420,42.8014,5.9826,4330,272,186.251,57.055,13.319,36.049,36.629,41.213,4.584,295.9,545.3,290.9
2024-01-03T09:54:07,2420,42.8014,5.9826,4330,272,186.297,57.076,13.324,36.043,36.623,41.210,4.587,295.9,545.4,290.8
2024-01-03T09:57:08,2420,42.8014,5.9826,4330,272,185.943,56.967,13.324,36.067,36.647,41.231,4.585,295.8,545.4,290.8
2024-01-03T10:00:07,2420,42.8014,5.9826,4330,272,186.270,57.061,13.319,36.048,36.628,41.222,4.594,295.9,545.4,290.9